CZ-2D R/B (44548 NORAD) Tracking and Keplerian Element Data

This shows tracking and keplerian element data for the satellite.

Feedback or suggestion? Click here.




ElementValue
Catalog44548
NameCZ-2D R/B
Epoch Orbit432
Epoch Day298.11801653
Epoch Year2019
RAAN319.2404
Inclination98.1481
Eccentricity0.0006668
Argument of Perigee284.3473
Mean Anonmoly75.6973
Mean Motion14.39218261
Decay Rate0
L11 44548U 19063B 19298.11801653 -.00000000 00000-0 13127-4 0 9997
L22 44548 98.1481 319.2404 0006668 284.3473 75.6973 14.39218261 4321

Live tracking and technical data element details for CZ-2D R/B (NORAD 44548). CZ-2D R/B can be tracked NOW for your location showing map with azimuth and elevation plus other details from your city location.

Track the satellite on the map from your city or location and see movement details for azimuth, elevation, latitude, longitude, range, height, and movement on the map or in text.







IsCatalogInMostPopularTable: catalog: 44548, numindb: 17
Update: records affected: 1



GetName: 44548 CZ-2D R/B

Hit Count: updated at: Thu, 14 Nov 2019 05:47:35 GMT